Precipitable_Water
0.85 0.90 0.95 1.01 1.04 1.07 1.10 1.12 1.13 1.12 1.10 1.09 1.11 1.15 1.20 1.24 1.26 1.23 1.16 1.13 1.11 1.11 1.16 1.19 1.19 1.21 1.19 1.17 1.20 1.24 1.26 1.25 1.26 1.23 1.22 1.22 1.22 1.19 1.20 1.25 1.24 1.27 1.32 1.30 1.32 1.35 1.43 1.52 1.51 1.53 1.60 1.62 1.60 1.59 1.56 1.51 1.43 1.39 1.36 1.34 1.31 1.27 1.23
0.86 0.89 0.93 0.99 1.02 1.05 1.10 1.14 1.16 1.16 1.14 1.10 1.11 1.16 1.21 1.25 1.30 1.32 1.29 1.23 1.16 1.14 1.16 1.19 1.20 1.20 1.20 1.20 1.21 1.25 1.26 1.26 1.26 1.26 1.27 1.26 1.26 1.23 1.22 1.25 1.27 1.28 1.32 1.33 1.36 1.41 1.47 1.51 1.51 1.52 1.55 1.58 1.58 1.58 1.55 1.48 1.42 1.40 1.37 1.34 1.29 1.25 1.23
0.82 0.86 0.92 0.97 1.01 1.03 1.08 1.16 1.19 1.19 1.18 1.14 1.14 1.17 1.21 1.24 1.29 1.32 1.36 1.37 1.31 1.26 1.25 1.24 1.24 1.20 1.20 1.21 1.23 1.24 1.27 1.28 1.28 1.26 1.23 1.19 1.19 1.20 1.21 1.24 1.30 1.32 1.35 1.39 1.41 1.42 1.49 1.50 1.52 1.54 1.54 1.55 1.57 1.54 1.51 1.46 1.43 1.41 1.39 1.34 1.28 1.25 1.23
0.78 0.82 0.88 0.95 1.01 1.06 1.11 1.17 1.21 1.24 1.23 1.20 1.16 1.17 1.20 1.24 1.32 1.37 1.41 1.44 1.42 1.39 1.33 1.32 1.30 1.27 1.25 1.23 1.24 1.26 1.28 1.29 1.28 1.26 1.25 1.25 1.22 1.24 1.22 1.22 1.28 1.35 1.37 1.38 1.41 1.44 1.49 1.52 1.52 1.52 1.54 1.54 1.55 1.53 1.49 1.44 1.42 1.41 1.40 1.34 1.25 1.24 1.25
0.77 0.82 0.86 0.92 0.99 1.06 1.12 1.17 1.21 1.23 1.23 1.23 1.21 1.21 1.22 1.27 1.35 1.42 1.46 1.47 1.48 1.44 1.41 1.36 1.37 1.35 1.33 1.32 1.29 1.31 1.32 1.31 1.30 1.29 1.28 1.28 1.27 1.26 1.21 1.18 1.24 1.29 1.35 1.41 1.45 1.45 1.49 1.51 1.51 1.49 1.49 1.52 1.53 1.51 1.47 1.45 1.42 1.40 1.39 1.36 1.25 1.22 1.22
0.71 0.75 0.80 0.86 0.94 1.02 1.09 1.16 1.19 1.22 1.22 1.20 1.20 1.21 1.25 1.31 1.39 1.42 1.44 1.45 1.46 1.49 1.53 1.55 1.52 1.48 1.40 1.39 1.38 1.38 1.42 1.43 1.40 1.34 1.30 1.29 1.26 1.22 1.18 1.19 1.24 1.29 1.34 1.38 1.45 1.46 1.51 1.50 1.48 1.45 1.43 1.46 1.49 1.49 1.48 1.44 1.41 1.38 1.38 1.38 1.33 1.25 1.20
0.63 0.68 0.75 0.81 0.88 0.96 1.06 1.14 1.18 1.22 1.24 1.24 1.24 1.25 1.29 1.35 1.37 1.40 1.46 1.47 1.47 1.45 1.49 1.51 1.53 1.52 1.48 1.49 1.46 1.44 1.42 1.42 1.43 1.38 1.34 1.31 1.29 1.23 1.19 1.21 1.25 1.29 1.33 1.42 1.43 1.48 1.50 1.49 1.47 1.45 1.42 1.42 1.45 1.46 1.45 1.42 1.37 1.35 1.35 1.36 1.34 1.33 1.27
0.58 0.62 0.71 0.77 0.83 0.90 0.99 1.07 1.14 1.19 1.24 1.27 1.29 1.30 1.31 1.34 1.37 1.40 1.43 1.45 1.47 1.48 1.48 1.48 1.48 1.47 1.47 1.52 1.52 1.48 1.45 1.44 1.44 1.42 1.36 1.30 1.27 1.21 1.18 1.20 1.24 1.30 1.35 1.36 1.42 1.49 1.50 1.51 1.49 1.47 1.43 1.41 1.41 1.45 1.47 1.44 1.38 1.34 1.34 1.34 1.36 1.36 1.34
0.59 0.63 0.68 0.74 0.80 0.86 0.92 0.98 1.05 1.12 1.17 1.22 1.26 1.26 1.27 1.32 1.35 1.36 1.39 1.44 1.47 1.44 1.43 1.45 1.44 1.47 1.52 1.53 1.52 1.51 1.52 1.50 1.44 1.40 1.35 1.27 1.24 1.17 1.14 1.17 1.24 1.33 1.32 1.34 1.39 1.49 1.53 1.53 1.51 1.48 1.45 1.41 1.41 1.44 1.45 1.43 1.39 1.36 1.34 1.34 1.36 1.38 1.39
0.60 0.65 0.70 0.74 0.80 0.84 0.89 0.94 1.01 1.08 1.14 1.18 1.21 1.24 1.27 1.29 1.31 1.34 1.38 1.42 1.44 1.41 1.40 1.43 1.46 1.50 1.53 1.54 1.53 1.55 1.54 1.49 1.46 1.41 1.34 1.26 1.21 1.14 1.12 1.17 1.23 1.32 1.34 1.35 1.41 1.45 1.53 1.56 1.54 1.50 1.47 1.42 1.42 1.43 1.42 1.41 1.39 1.36 1.35 1.35 1.37 1.40 1.41
0.63 0.68 0.71 0.73 0.77 0.82 0.87 0.91 0.95 1.00 1.05 1.10 1.13 1.17 1.20 1.22 1.26 1.30 1.33 1.38 1.39 1.38 1.41 1.43 1.48 1.49 1.52 1.54 1.54 1.56 1.53 1.50 1.48 1.40 1.33 1.26 1.23 1.16 1.14 1.17 1.22 1.30 1.32 1.36 1.40 1.46 1.51 1.54 1.54 1.49 1.47 1.43 1.41 1.40 1.39 1.39 1.39 1.37 1.36 1.38 1.41 1.43 1.45
0.55 0.62 0.68 0.73 0.76 0.79 0.81 0.86 0.91 0.95 1.01 1.07 1.12 1.15 1.18 1.21 1.24 1.27 1.31 1.33 1.35 1.36 1.39 1.42 1.47 1.48 1.49 1.52 1.53 1.53 1.53 1.52 1.49 1.41 1.35 1.28 1.26 1.22 1.18 1.18 1.21 1.26 1.31 1.37 1.40 1.46 1.50 1.50 1.48 1.46 1.43 1.44 1.43 1.41 1.41 1.42 1.41 1.40 1.39 1.41 1.44 1.46 1.48
0.48 0.52 0.60 0.66 0.71 0.76 0.79 0.82 0.86 0.91 0.96 1.02 1.07 1.12 1.16 1.20 1.22 1.25 1.29 1.31 1.35 1.37 1.37 1.40 1.44 1.46 1.47 1.50 1.51 1.51 1.53 1.53 1.50 1.46 1.41 1.34 1.29 1.29 1.26 1.21 1.21 1.23 1.26 1.36 1.42 1.46 1.47 1.48 1.45 1.44 1.43 1.43 1.45 1.44 1.43 1.44 1.44 1.43 1.45 1.46 1.48 1.48 1.50
0.46 0.49 0.56 0.66 0.72 0.78 0.81 0.83 0.84 0.87 0.94 1.00 1.06 1.11 1.15 1.21 1.24 1.25 1.26 1.28 1.34 1.38 1.40 1.42 1.42 1.42 1.44 1.47 1.48 1.48 1.50 1.53 1.56 1.55 1.50 1.43 1.37 1.34 1.30 1.25 1.24 1.23 1.29 1.35 1.38 1.43 1.45 1.44 1.41 1.41 1.42 1.42 1.44 1.47 1.49 1.48 1.46 1.45 1.48 1.49 1.50 1.50 1.51
0.40 0.44 0.49 0.54 0.63 0.73 0.81 0.84 0.85 0.85 0.89 0.96 1.03 1.09 1.13 1.18 1.22 1.27 1.30 1.33 1.35 1.37 1.36 1.38 1.38 1.39 1.42 1.45 1.44 1.44 1.48 1.53 1.59 1.61 1.59 1.54 1.44 1.35 1.31 1.26 1.24 1.27 1.29 1.31 1.34 1.41 1.44 1.44 1.43 1.39 1.39 1.42 1.44 1.46 1.50 1.49 1.47 1.46 1.46 1.46 1.48 1.52 1.53
0.38 0.41 0.46 0.52 0.60 0.68 0.76 0.83 0.86 0.86 0.88 0.92 0.98 1.03 1.10 1.15 1.19 1.22 1.23 1.26 1.32 1.34 1.38 1.42 1.39 1.38 1.39 1.39 1.40 1.45 1.52 1.56 1.58 1.58 1.60 1.58 1.49 1.39 1.34 1.30 1.28 1.30 1.29 1.29 1.31 1.35 1.39 1.42 1.43 1.42 1.40 1.39 1.42 1.45 1.47 1.47 1.47 1.45 1.45 1.48 1.49 1.51 1.55
0.42 0.44 0.46 0.50 0.59 0.66 0.71 0.79 0.85 0.88 0.90 0.94 0.99 1.03 1.07 1.11 1.17 1.20 1.21 1.24 1.28 1.31 1.38 1.41 1.38 1.39 1.37 1.35 1.40 1.48 1.55 1.58 1.59 1.60 1.57 1.57 1.55 1.49 1.42 1.37 1.33 1.31 1.30 1.30 1.29 1.28 1.32 1.37 1.39 1.41 1.43 1.42 1.40 1.40 1.41 1.42 1.43 1.44 1.44 1.45 1.49 1.51 1.53
0.45 0.46 0.48 0.50 0.56 0.63 0.69 0.75 0.81 0.84 0.88 0.92 0.97 1.02 1.07 1.11 1.17 1.21 1.20 1.23 1.25 1.30 1.39 1.41 1.39 1.37 1.34 1.35 1.44 1.51 1.54 1.57 1.61 1.61 1.58 1.59 1.57 1.53 1.48 1.44 1.38 1.31 1.29 1.29 1.26 1.27 1.29 1.29 1.32 1.37 1.41 1.42 1.42 1.40 1.38 1.37 1.39 1.41 1.42 1.44 1.47 1.51 1.55
0.51 0.49 0.51 0.53 0.57 0.64 0.69 0.72 0.76 0.80 0.86 0.91 0.95 0.99 1.05 1.11 1.15 1.17 1.19 1.19 1.23 1.33 1.38 1.38 1.38 1.36 1.35 1.39 1.45 1.49 1.54 1.58 1.60 1.61 1.61 1.60 1.60 1.61 1.57 1.48 1.39 1.32 1.27 1.24 1.26 1.28 1.24 1.23 1.27 1.30 1.36 1.39 1.38 1.37 1.38 1.36 1.39 1.40 1.42 1.45 1.49 1.57 1.68
0.61 0.61 0.63 0.63 0.63 0.64 0.66 0.70 0.76 0.81 0.84 0.87 0.91 0.98 1.06 1.13 1.15 1.18 1.22 1.22 1.28 1.32 1.34 1.35 1.36 1.36 1.34 1.38 1.42 1.47 1.52 1.57 1.59 1.60 1.61 1.64 1.65 1.64 1.58 1.47 1.36 1.31 1.30 1.29 1.31 1.26 1.21 1.21 1.21 1.24 1.27 1.31 1.32 1.33 1.35 1.36 1.38 1.41 1.44 1.48 1.54 1.65 1.77
0.66 0.66 0.63 0.63 0.64 0.67 0.70 0.72 0.75 0.79 0.83 0.88 0.94 1.02 1.07 1.11 1.18 1.23 1.28 1.30 1.29 1.30 1.28 1.28 1.27 1.28 1.30 1.32 1.37 1.45 1.50 1.54 1.57 1.59 1.64 1.67 1.67 1.64 1.57 1.48 1.38 1.35 1.35 1.34 1.28 1.21 1.16 1.15 1.17 1.19 1.21 1.24 1.28 1.29 1.30 1.33 1.36 1.39 1.44 1.51 1.61 1.73 1.81
0.58 0.64 0.62 0.65 0.65 0.67 0.69 0.72 0.73 0.76 0.80 0.88 0.95 1.00 1.04 1.06 1.15 1.20 1.24 1.30 1.26 1.24 1.23 1.21 1.20 1.20 1.24 1.27 1.32 1.38 1.44 1.49 1.53 1.58 1.63 1.65 1.65 1.60 1.53 1.49 1.43 1.33 1.34 1.35 1.34 1.31 1.26 1.23 1.22 1.18 1.18 1.22 1.23 1.22 1.21 1.28 1.35 1.39 1.47 1.58 1.70 1.79 1.86
0.58 0.59 0.60 0.62 0.68 0.72 0.76 0.79 0.82 0.86 0.88 0.92 0.96 1.00 1.04 1.09 1.14 1.17 1.19 1.21 1.21 1.20 1.21 1.23 1.21 1.21 1.23 1.25 1.29 1.35 1.41 1.46 1.50 1.55 1.59 1.62 1.59 1.56 1.53 1.49 1.44 1.40 1.40 1.37 1.35 1.31 1.25 1.18 1.18 1.21 1.19 1.18 1.20 1.21 1.23 1.30 1.37 1.44 1.55 1.67 1.76 1.81 1.83
0.72 0.72 0.74 0.74 0.74 0.74 0.80 0.83 0.85 0.88 0.94 0.99 0.98 1.00 1.03 1.10 1.14 1.14 1.12 1.12 1.14 1.16 1.18 1.20 1.18 1.20 1.23 1.26 1.32 1.35 1.38 1.42 1.47 1.52 1.57 1.60 1.56 1.55 1.56 1.54 1.50 1.46 1.45 1.35 1.31 1.29 1.25 1.25 1.25 1.25 1.23 1.23 1.25 1.28 1.27 1.32 1.43 1.54 1.65 1.74 1.79 1.83 1.83
0.75 0.76 0.79 0.84 0.83 0.79 0.79 0.80 0.85 0.91 0.94 0.95 0.98 1.04 1.08 1.11 1.13 1.09 1.05 1.05 1.09 1.11 1.11 1.13 1.14 1.18 1.21 1.25 1.29 1.31 1.35 1.41 1.45 1.49 1.54 1.57 1.57 1.59 1.58 1.55 1.50 1.49 1.49 1.44 1.40 1.34 1.34 1.35 1.31 1.28 1.30 1.30 1.30 1.35 1.38 1.44 1.53 1.62 1.72 1.81 1.82 1.81 1.80
0.66 0.71 0.77 0.87 0.89 0.88 0.89 0.85 0.85 0.83 0.82 0.86 0.91 1.07 1.19 1.18 1.11 1.05 1.03 1.05 1.09 1.07 1.05 1.07 1.12 1.18 1.22 1.23 1.25 1.30 1.35 1.39 1.40 1.41 1.46 1.50 1.56 1.61 1.60 1.62 1.61 1.57 1.51 1.47 1.46 1.42 1.41 1.39 1.36 1.31 1.30 1.34 1.37 1.44 1.50 1.53 1.58 1.70 1.82 1.85 1.81 1.77 1.79
0.76 0.79 0.77 0.80 0.87 0.92 0.88 0.87 0.83 0.84 0.87 0.90 0.97 1.07 1.13 1.18 1.16 1.10 1.07 1.08 1.08 1.03 1.02 1.06 1.12 1.17 1.17 1.19 1.25 1.30 1.34 1.38 1.39 1.37 1.38 1.43 1.50 1.57 1.62 1.65 1.62 1.60 1.54 1.50 1.49 1.46 1.44 1.42 1.44 1.44 1.44 1.47 1.48 1.52 1.57 1.61 1.63 1.76 1.86 1.85 1.78 1.77 1.83
0.72 0.71 0.78 0.82 0.85 0.87 0.87 0.90 0.87 0.85 0.88 0.97 1.04 1.07 1.09 1.10 1.07 1.04 1.07 1.10 1.05 1.02 1.04 1.09 1.13 1.12 1.14 1.20 1.25 1.28 1.32 1.37 1.41 1.43 1.42 1.45 1.52 1.56 1.57 1.64 1.68 1.66 1.63 1.60 1.53 1.48 1.45 1.49 1.53 1.56 1.55 1.53 1.52 1.55 1.59 1.66 1.74 1.85 1.91 1.82 1.77 1.80 1.87
0.69 0.69 0.69 0.68 0.69 0.78 0.83 0.83 0.82 0.84 0.86 0.96 1.02 1.10 1.13 1.10 1.02 1.05 1.11 1.08 1.05 1.11 1.19 1.22 1.26 1.27 1.24 1.26 1.28 1.30 1.34 1.39 1.44 1.49 1.55 1.55 1.56 1.55 1.55 1.64 1.70 1.74 1.75 1.71 1.65 1.57 1.52 1.50 1.52 1.51 1.49 1.47 1.51 1.59 1.67 1.74 1.85 1.96 1.93 1.85 1.85 1.90 1.90
0.71 0.72 0.72 0.80 0.81 0.82 0.84 0.84 0.88 0.86 0.90 0.94 0.99 1.06 1.15 1.11 1.08 1.07 1.06 1.07 1.19 1.26 1.25 1.25 1.26 1.29 1.30 1.32 1.34 1.36 1.38 1.40 1.44 1.48 1.54 1.57 1.61 1.60 1.61 1.63 1.66 1.71 1.73 1.75 1.73 1.65 1.54 1.51 1.52 1.51 1.49 1.48 1.57 1.68 1.72 1.74 1.84 2.00 1.97 1.93 1.90 1.90 1.87
0.74 0.72 0.73 0.73 0.76 0.85 0.87 0.84 0.86 0.93 0.94 0.96 0.96 1.02 1.05 1.09 1.06 1.08 1.08 1.16 1.27 1.27 1.23 1.22 1.24 1.27 1.29 1.30 1.32 1.35 1.42 1.50 1.56 1.62 1.66 1.71 1.74 1.71 1.69 1.66 1.67 1.62 1.67 1.74 1.77 1.74 1.64 1.57 1.53 1.50 1.51 1.56 1.60 1.64 1.68 1.74 1.84 1.86 1.79 1.77 1.86 1.88 1.87
0.79 0.80 0.79 0.80 0.82 0.84 0.86 0.88 0.88 0.89 0.91 0.98 1.04 1.06 1.10 1.10 1.11 1.04 1.09 1.20 1.23 1.25 1.24 1.24 1.25 1.25 1.25 1.28 1.30 1.33 1.38 1.40 1.47 1.55 1.63 1.70 1.78 1.76 1.78 1.74 1.73 1.69 1.69 1.71 1.73 1.76 1.71 1.63 1.58 1.55 1.60 1.62 1.59 1.59 1.67 1.76 1.79 1.77 1.67 1.63 1.78 1.84 1.83
0.84 0.84 0.80 0.77 0.83 0.87 0.87 0.87 0.87 0.89 0.90 0.91 1.03 1.09 1.12 1.14 1.18 1.19 1.22 1.27 1.35 1.34 1.31 1.28 1.26 1.27 1.31 1.32 1.34 1.35 1.37 1.36 1.37 1.46 1.55 1.58 1.71 1.82 1.81 1.81 1.83 1.79 1.74 1.69 1.66 1.65 1.67 1.68 1.65 1.63 1.66 1.68 1.62 1.59 1.66 1.70 1.74 1.65 1.54 1.55 1.63 1.73 1.75
0.90 0.91 0.92 0.93 0.93 0.91 0.89 0.89 0.90 0.92 0.94 0.94 1.00 1.05 1.09 1.12 1.15 1.21 1.28 1.34 1.36 1.36 1.32 1.27 1.26 1.24 1.24 1.30 1.36 1.39 1.36 1.35 1.37 1.41 1.49 1.56 1.61 1.67 1.76 1.80 1.84 1.77 1.71 1.66 1.61 1.55 1.53 1.55 1.62 1.69 1.73 1.75 1.70 1.63 1.65 1.70 1.67 1.56 1.49 1.49 1.60 1.72 1.73
0.97 0.97 0.98 0.96 0.98 0.99 0.94 0.93 0.92 0.95 0.95 0.99 1.05 1.08 1.09 1.10 1.14 1.20 1.21 1.27 1.34 1.36 1.31 1.26 1.23 1.24 1.28 1.34 1.36 1.37 1.45 1.52 1.61 1.57 1.41 1.31 1.29 1.44 1.53 1.54 1.69 1.78 1.74 1.75 1.79 1.73 1.64 1.63 1.74 1.92 1.99 1.90 1.78 1.67 1.66 1.68 1.55 1.47 1.49 1.48 1.69 1.72 1.59
0.99 0.99 1.01 1.05 1.07 1.06 1.04 1.03 1.02 1.01 1.01 1.04 1.09 1.10 1.11 1.12 1.15 1.19 1.21 1.24 1.26 1.28 1.26 1.29 1.32 1.31 1.29 1.30 1.30 1.34 1.41 1.45 1.45 1.46 1.45 1.39 1.25 1.24 1.41 1.52 1.52 1.67 1.73 1.72 1.80 1.84 1.85 1.84 1.86 1.88 1.88 1.88 1.89 1.93 1.80 1.59 1.49 1.54 1.48 1.54 1.66 1.66 1.59
1.02 1.02 1.03 1.08 1.06 1.07 1.07 1.07 1.07 1.05 1.05 1.09 1.13 1.13 1.13 1.13 1.17 1.18 1.19 1.20 1.23 1.24 1.24 1.23 1.22 1.28 1.33 1.35 1.32 1.29 1.27 1.30 1.35 1.40 1.38 1.35 1.35 1.37 1.35 1.42 1.55 1.64 1.72 1.78 1.77 1.76 1.80 1.91 1.99 1.88 1.71 1.82 1.84 1.95 1.88 1.75 1.63 1.52 1.52 1.55 1.60 1.58 1.53
1.14 1.13 1.13 1.14 1.13 1.12 1.13 1.12 1.11 1.08 1.08 1.10 1.11 1.09 1.10 1.14 1.19 1.22 1.25 1.27 1.28 1.29 1.27 1.27 1.26 1.24 1.27 1.31 1.30 1.28 1.26 1.25 1.25 1.26 1.27 1.30 1.35 1.37 1.37 1.38 1.38 1.48 1.61 1.66 1.73 1.96 2.01 2.00 1.94 1.90 1.89 1.78 1.71 1.70 1.73 1.74 1.66 1.54 1.52 1.51 1.49 1.44 1.43
Wind_Speed
23 23 24 23 23 25 26 27 27 27 27 27 27 27 27 26 26 26 26 27 28 28 28 27 27 27 26 26 26 26 25 25 24 24 23 23 22 21 21 20 20 19 18 17 17 16 15 14 14 13 12 11 11 10 8 7 6 5 5 4 4 4 5
23 24 24 24 23 25 27 28 28 28 28 28 28 28 27 27 27 27 26 27 28 28 28 28 28 28 27 27 27 27 26 26 25 25 24 24 23 23 22 21 21 20 19 19 18 17 16 15 15 14 13 12 12 11 10 9 8 7 6 6 6 6 6
24 24 24 24 24 24 26 28 29 29 29 29 29 28 28 28 28 28 27 27 27 28 28 28 29 28 28 27 27 28 27 27 26 26 25 25 25 24 23 22 21 21 20 20 19 18 17 16 16 15 14 13 12 12 11 10 9 8 8 7 7 7 7
24 25 25 25 25 25 26 27 29 29 29 30 30 29 29 29 29 28 27 27 27 28 28 28 28 28 28 27 28 28 28 28 27 27 26 26 25 25 24 24 23 22 21 21 20 19 18 18 17 16 15 14 13 13 12 11 10 10 9 9 8 8 8
24 25 25 25 25 25 25 27 29 29 30 30 30 30 30 30 29 28 27 27 27 27 27 27 27 27 27 27 27 28 28 28 28 27 27 27 26 26 25 25 24 23 22 21 21 20 19 19 18 17 16 15 15 14 13 12 12 11 11 10 10 10 9
22 24 25 24 24 25 25 27 29 29 30 30 30 30 30 29 28 28 28 27 27 27 27 26 26 26 26 26 27 27 28 28 28 28 28 27 27 27 26 26 25 24 23 23 22 21 21 20 19 18 18 17 16 15 14 14 13 13 12 12 12 11 11
22 22 24 24 24 24 25 27 28 29 30 29 29 29 29 29 29 29 28 27 27 27 27 27 26 26 26 25 26 26 27 28 28 28 28 28 28 28 27 26 25 25 24 24 23 22 22 22 21 20 19 18 17 16 16 15 15 14 13 13 13 12 12
23 23 23 24 24 24 24 25 27 28 29 29 29 29 29 29 29 29 28 28 28 27 27 27 27 26 26 25 25 26 26 27 27 27 28 28 29 28 27 26 26 25 25 25 24 23 23 23 22 21 20 19 19 18 17 16 16 15 14 14 13 13 13
25 25 24 24 24 24 24 24 25 26 27 28 29 29 29 29 29 29 29 28 28 28 28 28 27 27 26 26 26 26 26 26 26 26 27 28 28 28 27 27 26 26 26 25 25 24 24 24 23 22 21 21 20 19 18 18 17 16 16 15 14 14 14
24 25 26 25 25 25 24 24 24 25 26 27 28 28 29 29 29 29 28 28 29 29 30 29 28 27 26 26 26 26 26 26 26 26 27 28 28 28 27 27 26 26 26 26 25 25 25 25 24 23 23 22 21 20 19 19 18 17 17 16 15 15 15
23 24 25 26 26 26 26 25 24 25 25 26 26 27 28 28 28 28 28 29 30 30 30 29 28 27 27 27 26 26 26 26 26 25 26 27 28 28 27 27 27 27 27 26 26 26 26 25 25 24 24 23 22 21 20 20 19 19 18 17 17 16 16
23 23 25 26 27 28 28 26 25 26 26 26 27 27 28 28 28 28 28 29 29 30 30 29 29 28 27 27 27 26 26 26 26 26 25 26 27 28 27 27 28 27 27 27 27 27 27 26 26 25 25 24 23 22 21 21 20 19 19 18 18 18 18
23 23 24 26 27 28 28 27 26 27 27 28 28 29 29 29 29 29 28 28 29 29 29 29 29 28 28 28 28 27 27 26 26 26 25 25 26 28 27 27 28 28 27 28 28 27 27 27 27 26 25 24 23 23 22 21 21 20 19 19 19 19 20
24 24 25 25 27 29 30 28 27 27 27 28 29 29 29 29 30 29 29 29 29 29 29 29 29 29 29 29 28 28 28 27 27 26 26 25 26 28 28 28 28 28 28 28 28 28 28 28 27 27 26 25 24 24 23 22 22 21 21 21 21 21 21
25 25 26 26 26 28 30 30 28 27 27 28 28 30 30 30 30 30 29 29 29 29 29 29 30 30 29 29 29 29 29 28 27 27 27 26 27 28 28 28 28 29 29 29 29 28 28 28 28 27 26 26 25 24 24 23 23 23 23 22 22 23 23
24 25 26 26 25 26 28 30 29 27 27 27 28 29 30 30 31 31 30 30 30 30 30 30 30 30 30 30 29 29 29 29 28 28 28 27 27 28 29 29 29 30 30 29 29 29 29 28 28 27 27 26 26 25 25 24 24 24 24 24 24 24 24
24 24 25 25 25 25 26 29 29 28 27 27 28 29 30 31 31 31 31 31 31 30 30 30 30 30 30 30 30 30 30 30 29 29 29 29 28 29 30 30 30 31 30 30 29 30 29 29 29 28 28 27 27 26 26 26 26 25 25 25 26 26 26
24 24 24 24 25 25 26 28 29 28 27 28 29 29 30 30 30 31 31 31 31 30 30 31 31 31 31 31 30 30 30 30 30 30 30 30 29 29 30 31 32 32 32 31 30 30 30 30 30 29 28 28 28 28 28 27 27 27 26 26 27 27 27
23 24 24 23 24 25 26 27 28 28 28 28 29 30 30 30 30 31 31 32 31 30 30 30 31 32 32 31 31 31 31 31 31 31 31 31 31 30 30 32 33 34 33 32 32 31 31 31 31 30 29 29 29 29 28 28 28 28 27 27 28 28 28
22 22 22 23 23 24 25 25 26 28 28 28 29 30 30 30 31 31 32 32 31 30 30 31 31 31 32 31 31 30 30 31 31 32 32 32 32 31 32 33 34 35 35 34 33 33 33 33 32 31 31 30 30 30 29 29 29 28 28 28 29 28 28
21 22 21 22 22 23 23 24 26 27 28 29 29 30 30 30 30 31 31 31 31 31 31 31 31 32 31 31 31 30 30 30 31 32 32 32 32 33 33 34 35 36 36 35 34 34 34 34 33 32 32 31 31 31 30 30 29 29 29 29 29 29 29
22 22 22 21 22 23 23 23 24 26 27 28 29 30 30 30 30 31 31 31 31 31 31 31 31 31 31 31 31 31 31 31 31 31 32 32 33 33 34 34 35 36 37 37 36 36 35 35 34 34 33 33 32 32 32 31 30 29 29 29 29 29 29
21 22 22 22 22 22 22 22 22 23 25 27 28 30 30 30 30 31 31 31 31 30 30 30 31 31 32 32 32 32 32 32 32 32 32 33 33 34 34 35 35 36 37 37 37 37 37 36 35 35 34 34 34 33 33 32 30 30 30 30 30 30 29
21 21 21 21 21 21 22 22 22 22 23 25 27 29 29 29 30 30 30 30 31 31 30 31 31 32 32 32 33 33 32 32 33 33 33 34 34 34 34 35 35 36 37 38 38 38 37 37 36 36 35 35 35 34 33 32 31 31 31 30 31 31 30
22 21 21 21 21 21 22 23 23 23 23 24 26 27 28 29 30 30 31 31 31 31 31 31 32 32 31 31 32 32 31 32 32 33 34 35 35 35 34 34 34 35 36 37 37 37 37 37 36 36 36 35 35 34 34 33 32 32 31 31 31 32 31
22 22 21 21 20 21 22 23 24 25 25 25 26 27 28 30 31 32 32 32 31 32 32 32 33 33 32 32 31 31 31 31 31 32 33 34 35 36 35 34 34 35 36 37 37 37 37 37 37 37 36 36 35 34 34 33 33 32 32 31 32 32 31
21 21 21 21 21 21 22 22 22 24 25 26 26 27 28 29 31 32 32 32 33 34 34 33 33 33 33 33 32 32 33 32 32 32 33 33 34 35 36 36 35 35 36 37 38 38 37 37 37 37 36 36 35 35 35 34 34 33 32 32 32 32 31
21 20 21 21 21 21 21 22 22 23 24 25 26 28 29 30 31 32 32 33 35 36 35 33 33 34 34 34 34 33 33 34 34 34 34 34 34 34 35 36 36 36 36 37 38 38 38 38 37 37 36 36 36 36 36 35 35 34 33 33 33 32 31
20 20 20 21 21 21 21 21 22 22 23 24 25 28 30 32 32 32 33 35 36 36 35 34 34 34 35 35 35 35 35 35 35 35 35 35 35 35 35 35 36 36 37 37 37 38 38 38 37 37 36 36 36 36 36 36 35 34 34 34 33 31 29
20 20 20 21 21 20 20 20 20 21 21 22 23 25 27 30 33 34 35 36 36 36 36 35 35 35 36 36 36 37 37 37 37 37 37 37 37 37 37 36 36 36 37 37 37 37 38 38 37 37 36 36 36 36 36 36 35 33 32 32 31 29 27
20 20 21 21 21 21 21 20 20 20 20 21 22 23 24 26 29 32 34 36 36 36 37 37 37 37 37 38 38 39 39 38 38 38 38 38 38 38 38 38 37 36 36 37 37 38 38 38 38 38 38 38 37 36 36 36 35 33 31 30 30 29 27
20 21 21 22 22 22 22 22 22 22 22 22 23 23 24 25 26 28 30 32 34 35 36 37 38 39 39 40 40 40 40 40 40 40 40 40 40 40 40 40 40 39 38 38 38 39 39 39 40 40 40 39 38 37 36 36 35 33 31 30 30 28 26
21 21 21 22 22 23 23 23 23 23 24 24 25 25 25 26 27 28 29 31 32 34 35 37 38 39 40 41 41 41 41 41 42 42 42 42 42 43 42 42 42 41 41 41 41 41 40 41 42 42 42 42 40 38 36 36 35 33 32 30 30 28 26
21 22 22 22 22 23 24 24 25 25 25 26 26 26 26 27 28 28 30 31 32 34 35 36 37 39 40 41 42 42 43 43 44 44 44 44 45 45 44 44 44 44 44 44 44 44 44 43 43 43 44 43 41 38 37 35 34 33 31 30 29 28 27
22 22 23 23 23 23 24 24 25 25 26 26 27 27 27 28 29 30 31 32 33 34 35 36 37 38 39 40 41 42 43 43 43 44 45 45 46 46 45 44 45 46 47 47 47 47 46 45 43 43 42 42 40 39 36 34 33 33 31 29 29 28 27
22 23 23 24 24 24 24 24 25 25 26 27 28 28 28 29 30 31 32 33 33 34 35 37 38 38 39 39 39 40 41 41 42 43 44 45 45 45 45 45 45 46 47 48 49 49 49 48 47 45 42 40 38 37 36 33 32 32 30 29 30 29 27
22 23 23 24 25 25 25 24 25 25 26 27 29 30 31 31 32 32 33 33 34 34 35 37 38 39 40 40 40 41 42 42 43 43 44 44 44 45 46 46 45 45 46 48 49 50 51 52 51 48 45 42 37 35 34 32 30 29 29 29 30 29 27
22 22 23 24 24 25 25 25 25 25 25 26 28 29 30 31 32 32 32 33 33 34 35 36 38 40 41 42 42 43 44 44 45 45 45 45 44 44 45 45 44 44 44 45 46 48 50 51 49 47 45 43 39 36 33 31 29 28 28 29 29 28 26
Wind_Direction
227 226 224 224 223 223 223 221 220 221 222 222 223 222 222 223 223 224 224 224 224 224 224 225 226 227 228 229 230 230 230 231 233 233 234 234 235 235 236 236 235 233 232 232 232 233 234 232 229 227 227 228 230 234 236 237 241 248 255 262 271 282 290
228 228 226 227 227 226 225 223 222 222 223 224 224 224 224 224 224 224 225 226 226 226 226 227 228 229 230 231 231 232 232 232 233 234 234 235 235 235 236 236 235 234 232 233 233 233 233 230 226 225 224 226 229 232 234 236 239 245 252 258 267 277 283
227 227 227 228 229 229 227 224 223 224 224 225 224 224 224 224 224 224 225 227 227 228 228 229 229 230 231 231 232 232 232 233 234 233 234 235 235 236 236 235 234 233 233 233 233 232 230 227 224 223 224 226 229 231 234 236 239 243 250 257 266 274 280
228 227 227 229 229 230 229 226 225 224 225 225 224 223 224 224 224 225 226 227 227 228 229 229 230 231 232 232 232 232 233 233 234 233 234 234 235 236 236 235 233 232 232 232 231 231 228 225 223 224 225 227 230 232 234 237 239 244 251 258 265 273 279
229 228 228 229 229 230 230 227 225 224 225 225 224 224 223 223 224 225 226 227 227 228 229 229 230 231 232 233 233 234 233 234 235 234 234 234 235 236 235 234 232 231 231 231 231 230 227 224 223 225 226 228 230 232 235 238 241 245 252 259 264 269 276
229 228 227 228 228 229 229 226 225 224 224 224 223 224 223 223 223 224 225 226 227 228 228 228 229 231 232 233 233 234 234 234 235 235 234 234 234 235 235 233 232 231 230 230 230 229 226 224 225 226 227 228 229 232 235 239 242 247 253 259 264 267 271
228 227 226 226 226 226 226 224 223 223 223 223 223 224 223 223 223 224 225 226 226 227 227 227 229 231 232 232 232 233 233 234 234 234 234 234 234 235 234 233 231 230 229 229 229 227 225 224 226 227 228 228 230 232 235 240 243 248 253 258 262 265 267
229 227 225 225 224 224 224 222 222 222 223 223 223 223 223 223 224 225 226 227 226 226 226 227 229 230 231 231 232 232 233 234 234 235 235 234 234 234 233 232 230 229 228 229 228 226 225 225 226 228 228 229 231 233 236 240 244 247 252 256 261 264 266
232 230 228 227 225 225 224 222 221 222 223 223 222 222 222 223 225 226 227 227 226 225 226 228 229 230 230 231 231 232 233 234 235 235 234 233 233 232 230 230 229 228 228 228 227 225 225 226 227 228 228 230 232 234 237 241 244 247 251 255 260 262 265
235 233 230 229 226 225 226 224 222 222 223 223 222 221 222 223 225 226 227 227 225 225 225 227 228 229 229 230 231 231 233 234 235 235 235 233 232 230 228 228 227 227 227 227 226 225 226 227 227 228 229 230 233 235 238 241 244 248 251 255 259 261 264
235 234 232 231 228 227 227 225 224 223 223 222 222 222 223 224 225 225 226 225 224 224 225 226 227 227 228 229 230 231 233 234 235 236 235 233 231 229 227 227 227 227 227 226 226 226 227 227 228 228 229 232 234 236 239 241 244 248 251 254 258 262 265
234 234 232 231 229 227 227 226 225 224 224 223 223 223 224 224 224 224 224 224 224 224 224 225 226 227 227 228 229 231 232 234 236 236 236 234 230 228 227 227 227 227 227 226 226 227 228 228 228 229 231 233 235 237 240 242 245 247 250 254 258 262 266
235 234 233 231 230 228 227 226 226 225 224 224 223 223 224 224 223 223 223 224 224 223 224 224 225 226 227 228 229 230 232 234 236 236 236 235 231 228 227 227 227 227 227 227 227 228 228 228 228 229 232 234 236 238 241 243 245 248 250 254 258 263 267
237 237 236 233 232 230 228 226 226 226 225 225 224 224 224 224 224 224 224 225 224 224 225 225 225 226 227 228 229 230 232 234 235 236 236 235 233 230 229 229 228 227 227 228 228 228 228 228 229 230 232 235 237 240 242 243 246 248 251 254 259 263 268
238 237 237 235 232 230 228 226 226 226 226 225 225 225 225 225 224 224 225 225 225 226 227 226 226 226 228 229 230 232 233 233 235 236 236 236 234 232 230 229 228 227 227 229 229 228 228 228 229 231 233 235 238 240 242 245 247 250 253 256 260 264 268
238 238 238 235 232 230 227 225 226 226 226 225 225 225 225 225 225 224 225 225 226 226 227 227 227 228 229 231 232 233 232 232 234 235 236 236 235 233 231 230 228 227 228 229 229 228 228 228 229 232 234 236 238 241 243 247 250 253 255 257 261 265 267
239 240 239 236 233 230 228 226 225 227 227 226 227 227 226 226 226 225 225 225 226 227 227 227 227 229 230 232 233 233 232 232 232 234 235 236 235 234 232 231 229 228 228 228 228 227 227 228 229 232 235 238 240 242 245 249 252 254 256 258 261 264 267
241 240 239 237 233 230 228 227 226 227 228 229 229 228 227 226 226 225 225 226 227 228 228 227 228 230 231 233 233 233 232 232 232 232 234 236 236 235 233 231 230 229 229 228 227 227 227 228 231 234 237 240 242 245 248 251 253 255 257 259 261 264 267
243 243 242 240 236 231 230 230 229 229 230 231 231 229 227 225 225 225 225 226 227 228 227 228 229 231 232 233 233 233 232 232 231 232 233 235 236 236 234 232 231 230 230 229 228 228 228 230 232 236 239 242 244 247 250 252 254 256 258 261 262 263 265
241 243 244 243 240 237 235 234 234 233 233 233 231 229 228 226 226 226 226 227 227 228 228 229 231 232 233 233 233 233 233 232 232 233 233 234 235 236 235 234 233 232 231 231 230 230 230 232 234 237 240 243 246 249 252 254 255 257 258 261 261 261 264
239 241 243 244 243 242 239 237 236 236 236 235 233 230 228 228 228 228 227 227 228 229 230 231 232 233 233 233 233 234 234 234 235 234 234 234 235 236 237 237 235 233 232 232 232 233 233 234 236 239 241 244 247 250 253 254 255 256 258 260 260 260 263
241 242 243 244 243 243 242 242 240 238 237 236 232 230 229 229 230 229 228 227 228 230 232 233 234 234 234 234 235 235 235 236 236 236 235 234 235 237 238 238 237 235 233 233 234 235 236 236 238 240 242 245 247 250 252 254 255 256 258 259 259 260 262
243 245 246 246 246 243 241 241 242 241 238 234 231 230 230 230 229 228 228 228 229 231 232 233 234 235 236 237 237 237 237 237 237 237 236 235 235 237 238 238 238 236 234 233 234 236 237 238 239 241 243 245 247 249 252 254 255 255 257 258 258 259 261
242 243 246 247 247 246 243 241 241 240 237 234 233 232 231 230 228 228 229 230 231 232 232 234 236 237 238 240 239 239 239 238 238 238 237 236 236 237 238 239 239 237 235 234 235 237 239 239 240 242 244 245 247 248 251 253 254 255 256 257 258 259 260
242 243 244 244 246 249 249 246 243 240 237 236 235 234 232 230 228 229 231 233 233 234 235 237 239 239 240 241 239 238 238 238 238 239 238 238 237 237 238 239 239 238 235 234 236 238 239 239 240 242 244 245 246 247 249 252 254 254 255 256 257 258 260
242 243 244 244 246 251 253 248 243 240 240 240 238 236 234 232 231 231 233 234 234 235 238 241 242 242 242 241 240 239 239 239 239 239 240 240 238 238 238 238 238 238 236 235 237 238 239 240 241 242 244 245 246 247 249 251 253 254 254 255 257 258 260
241 243 244 244 247 252 254 251 245 242 242 242 241 238 236 235 235 236 236 236 236 239 242 244 244 244 243 242 241 241 240 241 241 241 242 242 240 239 239 239 238 238 237 237 237 238 238 239 240 242 243 244 245 247 249 251 253 254 254 255 257 258 259
241 243 245 248 251 254 254 253 251 248 247 245 243 240 238 237 238 240 240 240 240 242 245 246 246 245 243 242 242 242 242 242 243 243 243 243 242 241 241 240 239 238 238 238 238 238 238 239 240 241 242 244 246 247 250 252 252 254 255 255 256 256 257
241 244 246 249 253 255 254 253 254 254 253 250 246 242 239 239 241 243 243 244 244 245 246 247 246 245 243 242 242 243 243 244 245 245 245 243 242 241 241 241 240 239 238 238 238 238 238 239 240 240 242 244 246 247 250 252 253 254 255 255 254 252 253
243 245 248 249 252 255 255 254 254 256 257 256 254 250 245 243 243 245 247 247 247 247 247 247 247 245 245 244 244 244 245 245 246 247 246 244 242 241 241 240 240 240 239 239 239 239 239 239 239 239 240 242 244 247 250 250 252 254 256 256 254 250 251
244 246 249 251 253 256 257 256 256 257 257 258 259 257 254 251 248 247 248 249 248 248 248 248 247 247 246 246 246 246 246 247 247 247 246 245 243 242 241 241 241 241 241 240 240 240 239 239 239 239 240 242 244 247 249 249 250 253 255 256 254 250 250
245 247 249 252 255 258 260 260 259 259 260 261 261 259 258 257 255 253 252 250 249 248 249 249 249 249 249 249 248 248 247 248 248 247 246 246 245 244 243 242 242 242 242 241 241 241 240 240 239 239 241 242 243 244 246 248 249 251 255 256 251 247 251
245 248 250 253 256 259 260 261 261 262 263 263 263 262 261 259 258 258 256 254 253 252 251 250 249 250 250 250 250 249 248 248 248 248 247 246 245 245 245 244 242 242 241 241 241 242 242 241 241 240 241 242 243 242 244 247 249 249 253 254 248 245 252
246 249 252 255 257 258 259 260 261 262 262 262 263 264 263 261 261 260 259 257 257 257 255 253 252 251 251 251 250 249 249 248 248 248 247 246 245 245 245 244 243 242 241 242 241 242 243 244 243 242 241 240 240 240 242 246 247 246 250 250 243 243 254
249 251 254 256 258 258 259 260 261 261 261 262 262 263 263 262 262 263 262 261 261 260 259 258 256 255 255 254 252 251 250 249 249 249 248 247 247 246 245 245 245 243 243 244 243 243 243 243 243 243 242 240 239 237 239 243 243 242 246 246 241 245 255
254 255 257 258 260 261 262 262 263 263 262 261 262 263 263 263 263 263 264 263 262 262 261 260 259 258 257 256 255 253 252 250 249 249 248 248 248 246 245 247 249 247 245 246 245 243 241 241 242 242 241 241 240 237 237 240 240 240 243 244 243 248 256
258 259 260 261 262 264 265 266 266 266 264 263 263 263 263 264 264 264 264 264 264 263 263 261 260 259 258 257 256 254 252 251 250 249 249 249 248 246 245 247 248 248 248 248 246 243 241 240 239 238 237 238 238 236 236 238 239 239 241 243 245 249 253
262 263 263 263 264 265 266 267 267 267 267 267 266 266 265 265 265 265 266 267 266 266 265 264 262 260 259 258 257 255 253 252 251 250 249 248 247 246 245 245 245 248 251 251 249 246 242 238 235 234 233 233 233 233 234 237 239 240 241 244 246 247 248